[[{"header":{"parameterUnit":"m.s-1","parameterCategory":1,"la1":30.2991,"la2":30.254,"lo1":-89.0895,"lo2":-89.0444,"dy":0.0017,"dx":0.0017,"nx":28,"ny":28,"refTime":"2024-04-13T03:00:00:Z","depth":0,"parameterNumber":2,"parameterNumberName":"U-component_of_WINDS"},"data":[0,0,0,0,0,0,0,0,0,0,0,0,0,0,0,0,0,0,0,0,0,0,0,0,0,0,0,0,0,0,0,0,0,0,0,0,0,0,0,0,0,0,0,0,0,0,0,0,0,0,0,0,0,0,0,0,0,0,-1.3616,-1.3616,0,-1.3609,-1.3609,-1.3609,-1.3572,-1.3571,-1.357,-1.3569,-1.3564,-1.3564,-1.3565,0,0,0,0,0,0,0,0,0,0,0,0,0,-1.3598,-1.3599,-1.3616,-1.3616,-1.3616,-1.3609,-1.3609,-1.3609,-1.3572,-1.3571,-1.357,-1.3569,-1.3564,-1.3564,-1.3565,0,0,0,0,0,0,0,0,0,0,0,0,0,-1.36,-1.3599,-1.3616,-1.3596,-1.3595,-1.3609,-1.3609,-1.3609,-1.3572,-1.3571,-1.357,-1.3568,-1.3563,-1.3564,-1.3565,-1.3599,0,0,-1.3568,-1.3569,0,0,0,0,0,0,0,0,-1.36,-1.3601,-1.3599,-1.3598,-1.3596,-1.359,-1.3601,-1.3606,-1.3573,-1.3581,-1.3569,-1.3568,-1.3574,-1.3574,-1.3576,-1.3598,-1.3598,-1.3569,-1.3569,-1.357,-1.357,0,0,0,0,0,0,0,-1.36,-1.3601,-1.3613,-1.3599,-1.3597,-1.3589,-1.3587,-1.3602,-1.3585,-1.358,-1.3577,-1.3577,-1.3572,-1.3575,-1.3575,-1.3598,-1.3569,-1.3569,-1.357,-1.357,-1.3649,-1.365,0,0,0,0,0,0,-1.3603,-1.3601,-1.3613,-1.3613,-1.3595,-1.359,-1.3589,-1.3593,-1.3585,-1.3582,-1.3578,-1.3575,-1.3573,-1.3574,-1.3575,-1.3613,-1.357,-1.3571,-1.3571,-1.3647,-1.3649,-1.3651,0,0,0,0,0,0,-1.3602,-1.3604,-1.3614,-1.3606,-1.3607,-1.3592,-1.3597,-1.3594,-1.3596,-1.3583,-1.358,-1.3583,-1.3572,-1.3573,-1.3593,-1.3613,-1.3571,-1.3572,-1.3646,-1.3648,-1.365,-1.3691,0,0,0,0,0,0,-1.3602,-1.3604,-1.3616,-1.3607,-1.3608,-1.3632,-1.3598,-1.3595,-1.3598,-1.3594,-1.3587,-1.3585,-1.3571,-1.3592,-1.3594,-1.3613,-1.3573,-1.3644,-1.3647,-1.3649,-1.3688,-1.3694,-1.37,0,0,0,0,0,-1.3602,-1.3628,-1.3617,-1.3619,-1.3622,-1.3633,-1.3633,-1.3617,-1.3599,-1.3612,-1.3604,-1.3585,-1.361,-1.3594,-1.3596,-1.3616,-1.3643,-1.3646,-1.3649,-1.3685,-1.3693,-1.37,0,0,0,0,0,0,-1.364,-1.3626,-1.3614,-1.3638,-1.3637,-1.3626,-1.3641,-1.3626,-1.363,-1.3626,-1.3606,-1.3605,-1.3628,-1.3624,-1.3606,-1.3649,-1.3623,-1.3627,-1.365,-1.3657,-1.3663,-1.3663,-1.3574,0,0,0,0,0,-1.3651,-1.366,-1.3648,-1.3671,-1.3671,-1.3656,-1.366,-1.3648,-1.3646,-1.3646,-1.3639,-1.3638,-1.3646,-1.3652,-1.3658,-1.3688,-1.3686,-1.3703,-1.3709,-1.3714,-1.3717,-1.3733,-1.374,-1.3662,-1.3662,-1.3662,0,0,-1.3674,-1.3668,-1.3675,-1.3679,-1.3676,-1.3687,-1.3656,-1.3669,-1.3676,-1.3648,-1.3666,-1.3661,-1.3659,-1.3684,-1.3695,-1.3682,-1.3739,-1.3718,-1.3722,-1.3722,-1.3737,-1.3744,-1.3751,-1.3664,-1.3663,-1.3663,0,0,-1.3722,-1.3718,-1.3737,-1.3735,-1.3732,-1.3722,-1.3727,-1.3719,-1.3715,-1.3733,-1.3712,-1.3721,-1.3735,-1.3735,-1.3736,-1.3786,-1.3769,-1.3789,-1.382,-1.3836,-1.3842,-1.3847,-1.3865,-1.3871,-1.3792,-1.3792,-1.3793,0,-1.3752,-1.3766,-1.3748,-1.3762,-1.3765,-1.3739,-1.3758,-1.3758,-1.3757,-1.376,-1.3745,-1.3763,-1.376,-1.3784,-1.3796,-1.3799,-1.3804,-1.3789,-1.3842,-1.3847,-1.3852,-1.3869,-1.3875,-1.3795,-1.3795,-1.3794,-1.3794,0,-1.3803,-1.3813,-1.3829,-1.3828,-1.3833,-1.3849,-1.3835,-1.3841,-1.3829,-1.3822,-1.3841,-1.3836,-1.3842,-1.3847,-1.3835,-1.387,-1.3862,-1.3846,-1.382,-1.3862,-1.3878,-1.3884,-1.3798,-1.3797,-1.3797,-1.3796,0,0,-1.3873,-1.3863,-1.3869,-1.3869,-1.3865,-1.3873,-1.3889,-1.3894,-1.39,-1.3901,-1.3914,-1.3927,-1.3912,-1.3914,-1.3902,-1.3916,-1.3956,-1.3897,-1.3897,-1.3908,-1.3994,-1.4007,-1.4014,-1.3945,-1.3946,-1.3947,-1.3995,0,-1.3918,-1.3944,-1.3929,-1.3958,-1.3968,-1.3944,-1.3958,-1.3958,-1.3951,-1.3959,-1.3953,-1.3962,-1.3941,-1.3942,-1.3955,-1.3948,-1.3973,-1.3945,-1.3957,-1.3958,-1.3958,-1.4022,-1.4035,-1.408,-1.4,-1.4001,-1.4002,0,-1.3974,-1.3978,-1.4007,-1.4001,-1.4005,-1.4017,-1.4021,-1.4029,-1.4028,-1.4023,-1.4026,-1.4011,-1.4027,-1.4003,-1.4025,-1.4006,-1.4011,-1.4008,-1.401,-1.401,-1.3982,-1.4024,-1.4094,-1.4101,-1.4011,-1.4011,-1.401,0,-1.4023,-1.4034,-1.4053,-1.4054,-1.4048,-1.4057,-1.4055,-1.4053,-1.4057,-1.4061,-1.4064,-1.407,-1.4073,-1.4079,-1.4067,-1.405,-1.4091,-1.4065,-1.4087,-1.4087,-1.4096,-1.4095,-1.4167,-1.41,-1.41,-1.41,-1.4099,0,-1.4075,-1.4093,-1.4075,-1.4087,-1.4107,-1.4091,-1.4112,-1.4108,-1.4106,-1.4117,-1.4098,-1.4109,-1.4092,-1.4102,-1.4093,-1.4113,-1.4115,-1.4111,-1.4108,-1.4112,-1.4113,-1.4114,-1.4111,-1.4101,-1.4101,-1.4101,-1.41,0,-1.4131,-1.412,-1.4139,-1.4132,-1.4131,-1.4146,-1.414,-1.4151,-1.4144,-1.4158,-1.4161,-1.415,-1.416,-1.4149,-1.4158,-1.4152,-1.4179,-1.4172,-1.4179,-1.4177,-1.42,-1.4198,-1.4275,-1.4284,-1.4211,-1.4212,-1.4213,0,-1.4165,-1.4179,-1.4173,-1.4179,-1.4178,-1.4188,-1.4192,-1.4177,-1.4183,-1.4183,-1.4195,-1.4203,-1.4209,-1.4227,-1.422,-1.4228,-1.4221,-1.4247,-1.4222,-1.4226,-1.4221,-1.422,-1.4221,-1.4252,-1.4253,-1.4254,-1.4254,0,-1.4226,-1.422,-1.4226,-1.4232,-1.4237,-1.4241,-1.4243,-1.4249,-1.4234,-1.4241,-1.4251,-1.4256,-1.4266,-1.4275,-1.4281,-1.428,-1.4265,-1.4263,-1.4268,-1.4272,-1.4276,-1.4274,-1.4193,-1.4261,-1.426,-1.426,-1.4259,-1.4259,-1.4272,-1.4283,-1.4281,-1.429,-1.429,-1.4292,-1.4303,-1.4297,-1.4305,-1.4312,-1.4303,-1.4316,-1.4316,-1.4322,-1.4322,-1.4333,-1.4321,-1.4329,-1.4331,-1.4333,-1.4337,-1.4275,-1.4334,-1.4334,-1.4333,-1.4333,-1.4333,0,-1.4331,-1.4329,-1.4337,-1.4341,-1.4348,-1.4333,-1.4335,-1.4342,-1.4354,-1.4355,-1.4361,-1.4374,-1.4383,-1.4377,-1.4385,-1.4395,-1.4388,-1.4397,-1.4396,-1.4396,-1.4346,-1.4341,-1.4402,-1.4402,-1.4402,-1.4402,-1.4402,-1.4402,-1.4363,-1.4382,-1.4376,-1.4395,-1.4393,-1.4405,-1.4407,-1.441,-1.4411,-1.4425,-1.4433,-1.4429,-1.4428,-1.4435,-1.4443,-1.4442,-1.4445,-1.4457,-1.4453,-1.4406,-1.4399,-1.4393,-1.4387,-1.4458,-1.4458,-1.4502,-1.4502,-1.4502]},{"header":{"parameterUnit":"m.s-1","parameterCategory":1,"la1":30.2991,"la2":30.254,"lo1":-89.0895,"lo2":-89.0444,"dy":0.0017,"dx":0.0017,"nx":28,"ny":28,"refTime":"2024-04-13T03:00:00:Z","depth":0,"parameterNumber":3,"parameterNumberName":"V-component_of_WINDS"},"data":[0,0,0,0,0,0,0,0,0,0,0,0,0,0,0,0,0,0,0,0,0,0,0,0,0,0,0,0,0,0,0,0,0,0,0,0,0,0,0,0,0,0,0,0,0,0,0,0,0,0,0,0,0,0,0,0,0,0,3.8634,3.8634,0,3.8609,3.8609,3.8609,3.8625,3.8626,3.8627,3.8627,3.8598,3.8596,3.8595,0,0,0,0,0,0,0,0,0,0,0,0,0,3.8691,3.869,3.8634,3.8634,3.8633,3.8609,3.8609,3.8609,3.8625,3.8626,3.8627,3.8628,3.8598,3.8596,3.8594,0,0,0,0,0,0,0,0,0,0,0,0,0,3.8666,3.8689,3.8634,3.8639,3.8639,3.8609,3.8609,3.8609,3.8625,3.8626,3.8627,3.8628,3.8599,3.8596,3.8594,3.8557,0,0,3.8587,3.8586,0,0,0,0,0,0,0,0,3.8667,3.8664,3.8638,3.8638,3.8639,3.8622,3.8618,3.8591,3.8625,3.863,3.8627,3.8629,3.8604,3.8602,3.8594,3.8556,3.8555,3.8587,3.8586,3.8585,3.8584,0,0,0,0,0,0,0,3.8669,3.8665,3.8624,3.8638,3.8638,3.8641,3.8638,3.8613,3.8611,3.863,3.8631,3.8628,3.8605,3.8597,3.8594,3.8554,3.8587,3.8585,3.8584,3.8583,3.8484,3.8483,0,0,0,0,0,0,3.8671,3.8666,3.8625,3.8623,3.8656,3.8639,3.8636,3.8626,3.8611,3.861,3.8627,3.8629,3.86,3.8596,3.8593,3.8549,3.8585,3.8583,3.8581,3.8485,3.8484,3.8483,0,0,0,0,0,0,3.8672,3.8667,3.8626,3.8645,3.864,3.8637,3.8625,3.8625,3.8617,3.8609,3.8609,3.862,3.8601,3.8596,3.8566,3.8548,3.8582,3.858,3.8487,3.8485,3.8483,3.8461,0,0,0,0,0,0,3.8674,3.8667,3.8654,3.8645,3.8639,3.8601,3.8624,3.8623,3.8613,3.8616,3.8602,3.8601,3.8601,3.857,3.8564,3.8546,3.8578,3.8489,3.8486,3.8484,3.8463,3.8458,3.8454,0,0,0,0,0,3.8676,3.8648,3.8654,3.8649,3.8623,3.86,3.8597,3.8599,3.8612,3.8598,3.8593,3.8601,3.8551,3.8567,3.856,3.8541,3.849,3.8487,3.8484,3.8465,3.8459,3.8454,0,0,0,0,0,0,3.8654,3.8647,3.8653,3.8622,3.8612,3.8603,3.8586,3.8592,3.8577,3.858,3.8582,3.8578,3.8548,3.8541,3.8559,3.8505,3.8522,3.8518,3.851,3.8504,3.85,3.8502,3.8576,0,0,0,0,0,3.8646,3.8629,3.8623,3.8596,3.8591,3.8589,3.8579,3.8582,3.8571,3.8566,3.8559,3.8547,3.8528,3.8516,3.8498,3.8462,3.8459,3.8446,3.8441,3.8438,3.8434,3.8415,3.8409,3.8473,3.8473,3.8473,0,0,3.8628,3.8622,3.8611,3.8591,3.8584,3.8566,3.8585,3.8565,3.8551,3.8562,3.8535,3.8529,3.8515,3.8482,3.8468,3.8476,3.8416,3.8434,3.8431,3.843,3.8411,3.8405,3.84,3.8471,3.8472,3.8472,0,0,3.8587,3.8581,3.8558,3.855,3.8539,3.8538,3.8533,3.8523,3.852,3.8493,3.8501,3.8484,3.8452,3.8442,3.8433,3.8388,3.8395,3.8382,3.8359,3.834,3.8335,3.833,3.8315,3.8309,3.8378,3.8378,3.8378,0,3.8566,3.854,3.8544,3.8524,3.8515,3.8526,3.8502,3.8494,3.8477,3.847,3.848,3.8441,3.8432,3.8397,3.8387,3.8379,3.8372,3.8384,3.8336,3.8331,3.8327,3.8312,3.8306,3.8377,3.8377,3.8377,3.8377,0,3.8515,3.8497,3.8479,3.8465,3.8453,3.8431,3.8431,3.8419,3.8423,3.842,3.8392,3.8382,3.8363,3.8355,3.8357,3.832,3.8326,3.8336,3.8354,3.8319,3.8305,3.8299,3.8375,3.8375,3.8376,3.8376,0,0,3.8459,3.8448,3.8441,3.8435,3.8424,3.8409,3.8387,3.837,3.836,3.8347,3.8328,3.8301,3.8311,3.83,3.8302,3.8285,3.8251,3.8297,3.8296,3.8289,3.8209,3.8202,3.8196,3.8255,3.8254,3.8253,3.821,0,3.8417,3.8381,3.8385,3.8349,3.8332,3.8343,3.8323,3.8314,3.8311,3.8295,3.8291,3.8272,3.8286,3.8279,3.8263,3.8258,3.8235,3.8261,3.8236,3.8236,3.824,3.8188,3.8181,3.8141,3.8205,3.8204,3.8203,0,3.8364,3.8352,3.8316,3.8308,3.8301,3.8284,3.8269,3.8254,3.8242,3.8241,3.823,3.8234,3.8211,3.8229,3.8197,3.8215,3.8204,3.82,3.8199,3.8197,3.8218,3.8185,3.8129,3.8123,3.8195,3.8195,3.8196,0,3.8328,3.8302,3.8277,3.8272,3.8261,3.8249,3.8244,3.8234,3.8224,3.821,3.8203,3.8186,3.8176,3.8162,3.8162,3.8175,3.8129,3.8147,3.8127,3.8127,3.8117,3.8117,3.8058,3.8109,3.8109,3.811,3.811,0,3.8282,3.8259,3.8261,3.8246,3.8221,3.8224,3.8198,3.8194,3.8185,3.8169,3.8176,3.8159,3.8159,3.8142,3.8141,3.8114,3.811,3.8108,3.8108,3.8107,3.8108,3.8101,3.8104,3.8108,3.8108,3.8109,3.8109,0,3.8237,3.8237,3.8211,3.8204,3.8202,3.8183,3.8177,3.8161,3.8159,3.8138,3.8133,3.8129,3.811,3.8108,3.8084,3.8083,3.8051,3.8054,3.8056,3.8056,3.8036,3.8038,3.7971,3.7962,3.8019,3.8018,3.8018,0,3.8208,3.8191,3.8182,3.8172,3.8167,3.8151,3.8141,3.8143,3.8132,3.8118,3.8105,3.8086,3.8072,3.804,3.8034,3.8016,3.8018,3.7996,3.8016,3.8016,3.8019,3.802,3.8018,3.7992,3.7992,3.7991,3.7991,0,3.8155,3.8157,3.8143,3.8129,3.8118,3.8107,3.8096,3.8087,3.8088,3.8075,3.8056,3.8045,3.8022,3.8003,3.7986,3.7979,3.7985,3.7985,3.7979,3.7979,3.7981,3.798,3.8046,3.7986,3.7987,3.7987,3.7987,3.7987,3.8118,3.8104,3.8096,3.808,3.8073,3.8063,3.8049,3.8046,3.803,3.8013,3.8015,3.7994,3.7983,3.796,3.7952,3.7935,3.7942,3.7934,3.7932,3.793,3.7928,3.7983,3.7931,3.7932,3.7932,3.7932,3.7932,0,3.8067,3.8062,3.8048,3.8034,3.8022,3.803,3.8018,3.8007,3.7989,3.7979,3.7965,3.7943,3.7925,3.7918,3.79,3.7888,3.789,3.7883,3.7884,3.7882,3.7922,3.7929,3.7882,3.7882,3.7882,3.7882,3.7882,3.7882,3.8039,3.8015,3.8016,3.7988,3.7984,3.7964,3.7957,3.7948,3.794,3.7916,3.7902,3.7898,3.7889,3.7871,3.7854,3.7852,3.7846,3.7838,3.7837,3.7874,3.788,3.7884,3.7891,3.7836,3.7836,3.7798,3.7798,3.7798]}]]